contact:dominique.lefevre@mio.osupytheas.fr, maurice.libes@osupytheas.fr, didier.mallarino@osupytheas.fr
Project:EMSO http://www.emso-fr.org/EMSO-France
Depth: 2436.0 m
Title:EMSO Ligure Ouest : Data MII capteur AQUADOPP
Date,Latitude,Longitude,X_East,Y_North,Z_Up,Amplitude_X,Amplitude_Y,Amplitude_Z,Batterie,SoundSpeed,Heading,Pitch,Roll,Pressure,TIS,Speed,Direction
, degrees North, degrees East, m.s-1, m.s-1,m.s-1, 1, 1, 1, Volt, m.s-1, degree, degree, degree, dbar, degree_C, m.s-1, degree
2020-05-05T00:04:03,42.805,6.029,-0.057,0.023,-0.019,103.0,108.0,101.0,13.4,1505.3,327.9,-0.7,1.8,2470.262,13.31,0.061,292.0
2020-05-05T00:07:03,42.805,6.029,-0.043,0.03,-0.03,103.0,108.0,101.0,13.4,1505.3,328.2,-0.7,1.8,2470.247,13.31,0.052,304.9
2020-05-05T00:10:03,42.805,6.029,-0.06,0.034,-0.049,103.0,109.0,100.0,13.3,1505.3,325.3,-0.7,1.9,2470.218,13.32,0.068,299.5
2020-05-05T00:13:03,42.805,6.029,-0.078,0.026,-0.037,102.0,108.0,101.0,13.4,1505.3,324.7,-0.7,1.8,2470.27,13.32,0.082,288.4
2020-05-05T00:16:03,42.805,6.029,-0.029,0.04,-0.007,102.0,110.0,100.0,13.4,1505.3,326.2,-0.7,1.8,2470.21,13.32,0.049,324.1
2020-05-05T00:19:03,42.805,6.029,-0.048,0.026,-0.031,103.0,108.0,100.0,13.3,1505.3,324.7,-0.7,1.8,2470.219,13.32,0.054,298.4
2020-05-05T00:22:03,42.805,6.029,-0.027,0.024,-0.019,105.0,108.0,101.0,13.4,1505.3,324.7,-0.7,1.8,2470.212,13.33,0.036,311.6
2020-05-05T00:25:03,42.805,6.029,-0.053,0.004,-0.037,103.0,109.0,101.0,13.3,1505.3,324.8,-0.7,1.8,2470.227,13.33,0.053,274.3
2020-05-05T00:28:03,42.805,6.029,-0.056,0.029,-0.014,102.0,109.0,101.0,13.3,1505.3,324.3,-0.7,1.8,2470.216,13.33,0.063,297.4
2020-05-05T00:31:03,42.805,6.029,-0.044,0.036,-0.041,104.0,109.0,100.0,13.3,1505.3,326.5,-0.7,1.8,2470.251,13.33,0.056,309.3
2020-05-05T00:34:03,42.805,6.029,-0.05,0.034,-0.037,103.0,109.0,101.0,13.3,1505.3,325.8,-0.7,1.8,2470.247,13.33,0.06,304.2
2020-05-05T00:37:03,42.805,6.029,-0.043,0.044,-0.004,103.0,110.0,100.0,13.4,1505.3,328.2,-0.7,1.8,2470.253,13.33,0.061,315.7
2020-05-05T00:40:03,42.805,6.029,-0.05,0.036,-0.027,103.0,109.0,101.0,13.3,1505.3,326.8,-0.7,1.8,2470.258,13.33,0.061,305.8
2020-05-05T00:43:03,42.805,6.029,-0.021,0.013,-0.039,103.0,110.0,101.0,13.3,1505.3,325.0,-0.7,1.8,2470.218,13.33,0.024,301.8
2020-05-05T00:46:03,42.805,6.029,-0.027,0.017,0.01,103.0,108.0,101.0,13.4,1505.3,324.6,-0.7,1.8,2470.206,13.33,0.031,302.2
2020-05-05T00:49:03,42.805,6.029,-0.058,0.041,-0.032,102.0,111.0,100.0,13.4,1505.3,326.6,-0.7,1.8,2470.213,13.33,0.071,305.3
2020-05-05T00:55:03,42.805,6.029,-0.046,0.041,0.006,102.0,113.0,101.0,13.4,1505.3,323.1,-0.8,1.8,2470.296,13.31,0.061,311.7
2020-05-05T00:58:03,42.805,6.029,-0.041,0.02,-0.022,103.0,113.0,101.0,13.4,1505.3,325.3,-0.7,1.8,2470.286,13.31,0.045,296.0
2020-05-05T01:04:03,42.805,6.029,-0.018,0.024,0.021,105.0,116.0,102.0,13.3,1505.2,324.5,-0.8,1.8,2470.29,13.3,0.03,323.1
2020-05-05T01:07:03,42.805,6.029,-0.038,0.028,0.012,103.0,111.0,101.0,13.4,1505.3,324.0,-0.7,1.8,2470.28,13.31,0.047,306.4
2020-05-05T01:10:03,42.805,6.029,-0.034,0.037,-0.037,102.0,110.0,101.0,13.4,1505.3,328.0,-0.7,1.8,2470.293,13.31,0.05,317.4
2020-05-05T01:13:03,42.805,6.029,-0.079,0.027,-0.058,104.0,109.0,100.0,13.4,1505.3,328.1,-0.7,1.8,2470.309,13.32,0.083,288.9
2020-05-05T01:16:03,42.805,6.029,-0.062,0.06,-0.006,103.0,109.0,101.0,13.3,1505.3,324.9,-0.7,1.9,2470.277,13.32,0.086,314.1
2020-05-05T01:19:03,42.805,6.029,-0.042,0.027,-0.003,103.0,110.0,101.0,13.3,1505.3,326.1,-0.7,1.8,2470.272,13.32,0.049,302.7
2020-05-05T01:22:03,42.805,6.029,-0.071,0.013,-0.063,102.0,112.0,100.0,13.4,1505.3,324.3,-0.7,1.9,2470.283,13.32,0.072,280.4
2020-05-05T01:25:03,42.805,6.029,-0.029,0.047,-0.02,103.0,111.0,100.0,13.4,1505.3,324.5,-0.7,1.8,2470.304,13.32,0.055,328.3
2020-05-05T01:28:03,42.805,6.029,-0.048,0.029,-0.011,102.0,111.0,100.0,13.4,1505.3,327.1,-0.7,1.8,2470.319,13.33,0.056,301.1
2020-05-05T01:31:03,42.805,6.029,-0.044,0.035,-0.011,103.0,109.0,100.0,13.4,1505.3,326.5,-0.7,1.8,2470.275,13.33,0.056,308.5
2020-05-05T01:34:03,42.805,6.029,-0.061,0.046,0.0,104.0,110.0,100.0,13.4,1505.3,324.9,-0.7,1.8,2470.288,13.33,0.076,307.0
2020-05-05T01:37:03,42.805,6.029,-0.026,0.023,-0.015,102.0,110.0,99.0,13.3,1505.3,326.4,-0.7,1.9,2470.233,13.33,0.034,311.5
2020-05-05T01:40:03,42.805,6.029,-0.053,0.023,-0.021,102.0,110.0,100.0,13.3,1505.3,327.2,-0.7,1.9,2470.317,13.33,0.057,293.5
2020-05-05T01:43:03,42.805,6.029,-0.038,0.034,-0.006,103.0,109.0,100.0,13.4,1505.3,327.1,-0.7,1.8,2470.307,13.33,0.05,311.8
2020-05-05T01:46:03,42.805,6.029,-0.037,0.024,-0.01,103.0,109.0,101.0,13.4,1505.3,327.6,-0.7,1.8,2470.269,13.33,0.044,303.0
2020-05-05T01:49:03,42.805,6.029,-0.01,0.02,0.024,101.0,111.0,99.0,13.4,1505.3,325.0,-0.7,1.8,2470.283,13.33,0.022,333.4
2020-05-05T01:52:03,42.805,6.029,-0.025,0.002,-0.04,101.0,109.0,101.0,13.4,1505.3,323.5,-0.7,1.8,2470.299,13.33,0.025,274.6
2020-05-05T01:55:03,42.805,6.029,0.002,0.003,0.01,101.0,110.0,100.0,13.3,1505.3,326.5,-0.7,1.8,2470.328,13.33,0.003,33.7
2020-05-05T01:58:03,42.805,6.029,-0.017,0.028,-0.018,101.0,109.0,100.0,13.3,1505.3,327.7,-0.7,1.8,2470.313,13.33,0.032,328.7
2020-05-05T02:04:03,42.805,6.029,-0.03,0.034,0.032,101.0,110.0,100.0,13.3,1505.3,325.3,-0.7,1.9,2470.349,13.31,0.045,318.6
2020-05-05T02:07:03,42.805,6.029,-0.037,0.037,-0.019,103.0,107.0,100.0,13.3,1505.3,324.2,-0.7,1.8,2470.323,13.31,0.052,315.0
2020-05-05T02:10:03,42.805,6.029,-0.033,0.034,0.007,101.0,108.0,100.0,13.4,1505.3,326.3,-0.7,1.8,2470.321,13.32,0.047,315.9
2020-05-05T02:13:03,42.805,6.029,-0.039,0.008,-0.002,103.0,108.0,102.0,13.4,1505.3,327.1,-0.7,1.8,2470.326,13.32,0.039,281.6
2020-05-05T02:16:03,42.805,6.029,-0.059,0.019,-0.048,102.0,111.0,100.0,13.3,1505.3,326.6,-0.7,1.8,2470.353,13.32,0.061,287.8
2020-05-05T02:19:03,42.805,6.029,-0.029,0.035,0.019,104.0,108.0,100.0,13.3,1505.3,328.2,-0.7,1.8,2470.321,13.33,0.045,320.4
2020-05-05T02:22:03,42.805,6.029,-0.055,0.015,-0.04,103.0,108.0,100.0,13.3,1505.3,326.4,-0.7,1.8,2470.289,13.33,0.057,285.3
2020-05-05T02:25:03,42.805,6.029,-0.032,0.044,-0.011,102.0,111.0,99.0,13.3,1505.3,327.3,-0.7,1.8,2470.333,13.33,0.054,324.0
2020-05-05T02:28:03,42.805,6.029,-0.036,0.023,-0.028,102.0,111.0,99.0,13.4,1505.3,326.6,-0.7,1.8,2470.327,13.33,0.042,302.6
2020-05-05T02:31:03,42.805,6.029,-0.041,0.043,-0.014,104.0,110.0,100.0,13.4,1505.3,327.8,-0.7,1.8,2470.297,13.33,0.059,316.4
2020-05-05T02:34:03,42.805,6.029,-0.021,0.022,-0.006,102.0,110.0,100.0,13.4,1505.3,324.0,-0.7,1.9,2470.312,13.33,0.03,316.3
2020-05-05T02:37:03,42.805,6.029,-0.04,0.019,-0.036,102.0,111.0,100.0,13.4,1505.3,326.7,-0.7,1.8,2470.337,13.33,0.044,295.4
2020-05-05T02:40:03,42.805,6.029,-0.026,0.016,-0.023,102.0,110.0,100.0,13.4,1505.3,325.7,-0.7,1.8,2470.365,13.33,0.03,301.6
2020-05-05T02:43:03,42.805,6.029,-0.04,0.023,-0.029,104.0,110.0,101.0,13.3,1505.3,324.6,-0.7,1.8,2470.369,13.33,0.046,299.9
2020-05-05T02:46:03,42.805,6.029,-0.026,0.018,-0.027,102.0,109.0,100.0,13.4,1505.3,327.2,-0.7,1.8,2470.36,13.33,0.031,304.7
2020-05-05T02:49:03,42.805,6.029,-0.028,0.02,-0.015,102.0,110.0,100.0,13.4,1505.3,327.3,-0.7,1.8,2470.346,13.33,0.034,305.5
2020-05-05T02:52:03,42.805,6.029,0.009,0.027,0.008,102.0,112.0,100.0,13.4,1505.3,328.2,-0.7,1.8,2470.365,13.33,0.028,18.4
2020-05-05T02:55:03,42.805,6.029,-0.022,0.024,-0.027,102.0,110.0,100.0,13.4,1505.3,326.3,-0.7,1.8,2470.345,13.33,0.032,317.5
2020-05-05T02:58:03,42.805,6.029,-0.04,0.041,-0.023,102.0,111.0,99.0,13.4,1505.3,325.2,-0.7,1.9,2470.36,13.33,0.057,315.7
2020-05-05T03:04:03,42.805,6.029,-0.028,0.023,-0.038,102.0,110.0,100.0,13.4,1505.3,327.0,-0.8,1.8,2470.371,13.31,0.036,309.4
2020-05-05T03:07:03,42.805,6.029,-0.017,0.018,-0.009,101.0,112.0,100.0,13.4,1505.3,324.2,-0.7,1.8,2470.416,13.32,0.024,316.6
2020-05-05T03:10:03,42.805,6.029,-0.026,0.015,0.0,103.0,111.0,100.0,13.4,1505.3,324.6,-0.7,1.8,2470.401,13.32,0.03,300.0
2020-05-05T03:13:03,42.805,6.029,-0.021,0.021,0.0,103.0,110.0,100.0,13.4,1505.3,327.3,-0.7,1.8,2470.402,13.33,0.029,315.0
2020-05-05T03:16:03,42.805,6.029,-0.02,0.027,0.009,103.0,110.0,100.0,13.4,1505.3,327.5,-0.7,1.8,2470.382,13.33,0.033,323.5
2020-05-05T03:19:03,42.805,6.029,-0.007,0.022,0.0,102.0,109.0,100.0,13.3,1505.3,327.5,-0.7,1.8,2470.395,13.33,0.023,342.4
2020-05-05T03:22:03,42.805,6.029,-0.014,0.02,-0.016,105.0,113.0,102.0,13.4,1505.3,325.2,-0.7,1.9,2470.372,13.33,0.024,325.0
2020-05-05T03:25:03,42.805,6.029,-0.021,0.0,-0.012,102.0,112.0,101.0,13.4,1505.3,325.5,-0.7,1.8,2470.396,13.33,0.021,270.0
2020-05-05T03:28:03,42.805,6.029,-0.043,0.005,-0.019,102.0,111.0,101.0,13.4,1505.3,324.8,-0.7,1.8,2470.363,13.33,0.043,276.6
2020-05-05T03:31:03,42.805,6.029,-0.029,0.018,-0.041,103.0,111.0,100.0,13.3,1505.3,325.0,-0.7,1.8,2470.405,13.33,0.034,301.8
2020-05-05T03:34:03,42.805,6.029,-0.042,0.041,-0.005,101.0,111.0,101.0,13.4,1505.3,328.0,-0.7,1.8,2470.385,13.33,0.058,314.3
2020-05-05T03:37:03,42.805,6.029,-0.017,0.011,-0.062,101.0,112.0,100.0,13.4,1505.3,327.1,-0.7,1.8,2470.393,13.33,0.02,302.9
2020-05-05T03:40:03,42.805,6.029,-0.03,0.02,-0.04,102.0,112.0,101.0,13.3,1505.3,328.3,-0.7,1.9,2470.427,13.33,0.036,303.7
2020-05-05T03:43:03,42.805,6.029,-0.031,0.015,-0.007,104.0,112.0,100.0,13.4,1505.3,324.0,-0.7,1.8,2470.366,13.33,0.034,295.8
2020-05-05T03:46:03,42.805,6.029,-0.017,0.043,-0.003,102.0,113.0,100.0,13.4,1505.3,325.8,-0.7,1.9,2470.421,13.33,0.046,338.4
2020-05-05T03:49:03,42.805,6.029,-0.022,0.005,-0.041,102.0,111.0,100.0,13.3,1505.3,324.3,-0.7,1.9,2470.391,13.33,0.022,282.8
2020-05-05T03:52:03,42.805,6.029,-0.034,0.0,-0.012,107.0,111.0,102.0,13.3,1505.3,326.9,-0.7,1.8,2470.403,13.33,0.034,270.0
2020-05-05T03:55:03,42.805,6.029,-0.011,0.004,-0.005,102.0,111.0,102.0,13.4,1505.4,324.2,-0.7,1.8,2470.397,13.34,0.011,290.0
2020-05-05T03:58:03,42.805,6.029,-0.009,0.017,-0.024,104.0,111.0,101.0,13.4,1505.3,326.0,-0.7,1.8,2470.384,13.33,0.019,332.1
2020-05-05T04:04:03,42.805,6.029,-0.02,0.021,-0.026,102.0,109.0,102.0,13.3,1505.3,324.1,-0.8,1.8,2470.411,13.32,0.028,316.4
2020-05-05T04:07:03,42.805,6.029,-0.014,0.013,-0.021,104.0,109.0,102.0,13.3,1505.3,326.3,-0.7,1.8,2470.417,13.32,0.019,312.9
2020-05-05T04:10:03,42.805,6.029,0.007,0.05,0.028,104.0,110.0,101.0,13.3,1505.3,326.8,-0.7,1.8,2470.453,13.33,0.05,8.0
2020-05-05T04:13:03,42.805,6.029,-0.022,0.029,-0.018,104.0,110.0,100.0,13.4,1505.3,327.9,-0.7,1.9,2470.463,13.33,0.036,322.8
2020-05-05T04:16:03,42.805,6.029,-0.033,0.028,-0.033,104.0,110.0,101.0,13.3,1505.3,324.5,-0.7,1.8,2470.42,13.33,0.043,310.3
2020-05-05T04:19:03,42.805,6.029,-0.026,0.016,-0.038,104.0,111.0,101.0,13.4,1505.3,325.5,-0.7,1.9,2470.435,13.33,0.03,301.6
2020-05-05T04:22:03,42.805,6.029,-0.034,0.035,-0.017,104.0,111.0,101.0,13.3,1505.3,328.7,-0.7,1.8,2470.437,13.33,0.048,315.8
2020-05-05T04:25:03,42.805,6.029,-0.02,0.029,-0.002,103.0,112.0,99.0,13.4,1505.3,323.8,-0.7,1.8,2470.435,13.33,0.035,325.4
2020-05-05T04:28:03,42.805,6.029,-0.035,0.02,-0.031,104.0,111.0,100.0,13.3,1505.3,324.7,-0.7,1.8,2470.408,13.33,0.04,299.7
2020-05-05T04:31:03,42.805,6.029,-0.007,0.01,-0.019,103.0,112.0,101.0,13.4,1505.3,328.2,-0.7,1.8,2470.444,13.33,0.012,325.0
2020-05-05T04:34:03,42.805,6.029,-0.016,0.039,-0.025,103.0,111.0,101.0,13.4,1505.3,325.7,-0.7,1.8,2470.431,13.33,0.042,337.7
2020-05-05T04:37:03,42.805,6.029,-0.016,0.034,-0.033,104.0,112.0,100.0,13.4,1505.3,324.2,-0.7,1.8,2470.411,13.33,0.037,334.8
2020-05-05T04:40:03,42.805,6.029,-0.025,0.028,-0.036,102.0,112.0,100.0,13.4,1505.3,325.4,-0.7,1.8,2470.422,13.33,0.037,318.2
2020-05-05T04:43:03,42.805,6.029,-0.018,0.029,-0.017,102.0,112.0,101.0,13.4,1505.3,328.2,-0.7,1.8,2470.453,13.33,0.034,328.2
2020-05-05T04:46:03,42.805,6.029,-0.003,0.015,-0.033,103.0,112.0,100.0,13.4,1505.3,324.8,-0.7,1.8,2470.434,13.33,0.015,348.7
2020-05-05T04:49:03,42.805,6.029,-0.01,0.031,-0.027,103.0,113.0,101.0,13.3,1505.3,323.6,-0.7,1.8,2470.435,13.33,0.032,342.1
2020-05-05T04:52:03,42.805,6.029,0.002,0.011,-0.036,103.0,112.0,101.0,13.4,1505.3,326.6,-0.7,1.8,2470.463,13.33,0.011,10.3
2020-05-05T04:55:03,42.805,6.029,-0.006,0.028,0.0,102.0,113.0,101.0,13.4,1505.3,326.5,-0.7,1.9,2470.448,13.33,0.028,347.9
2020-05-05T04:58:03,42.805,6.029,-0.012,0.007,-0.037,104.0,111.0,100.0,13.4,1505.3,323.5,-0.7,1.8,2470.399,13.33,0.013,300.3
2020-05-05T05:04:03,42.805,6.029,-0.042,0.013,-0.042,103.0,111.0,100.0,13.3,1505.3,326.9,-0.8,1.8,2470.491,13.31,0.043,287.2
2020-05-05T05:07:03,42.805,6.029,-0.008,0.031,-0.003,107.0,111.0,101.0,13.3,1505.3,325.6,-0.7,1.8,2470.441,13.32,0.032,345.5
2020-05-05T05:10:03,42.805,6.029,-0.006,0.028,0.011,102.0,113.0,102.0,13.4,1505.3,324.7,-0.7,1.8,2470.442,13.32,0.028,347.9
2020-05-05T05:13:03,42.805,6.029,-0.01,0.034,-0.009,103.0,111.0,101.0,13.4,1505.3,324.6,-0.7,1.8,2470.488,13.33,0.035,343.6
2020-05-05T05:16:03,42.805,6.029,-0.015,0.008,-0.044,103.0,110.0,100.0,13.3,1505.3,324.8,-0.7,1.8,2470.45,13.33,0.017,298.1
2020-05-05T05:19:03,42.805,6.029,0.007,0.035,-0.003,104.0,111.0,102.0,13.3,1505.3,324.3,-0.7,1.8,2470.463,13.33,0.035,11.3
2020-05-05T05:22:03,42.805,6.029,-0.011,0.041,0.001,101.0,113.0,101.0,13.4,1505.3,326.7,-0.7,1.8,2470.464,13.33,0.042,345.0
2020-05-05T05:25:03,42.805,6.029,-0.019,0.034,-0.006,104.0,110.0,101.0,13.3,1505.3,324.6,-0.7,1.8,2470.471,13.33,0.038,330.8
2020-05-05T05:28:03,42.805,6.029,-0.019,0.023,-0.045,103.0,112.0,100.0,13.4,1505.3,326.0,-0.7,1.8,2470.476,13.33,0.029,320.4
2020-05-05T05:31:03,42.805,6.029,0.009,0.035,-0.008,103.0,111.0,101.0,13.4,1505.3,326.6,-0.7,1.8,2470.432,13.33,0.036,14.4
2020-05-05T05:34:03,42.805,6.029,0.009,0.032,-0.005,102.0,110.0,101.0,13.3,1505.3,326.0,-0.7,1.9,2470.459,13.33,0.033,15.7
2020-05-05T05:37:03,42.805,6.029,-0.006,0.035,-0.004,104.0,112.0,101.0,13.4,1505.3,328.0,-0.7,1.8,2470.474,13.33,0.035,350.3
2020-05-05T05:40:03,42.805,6.029,-0.016,0.02,0.007,104.0,112.0,101.0,13.4,1505.3,323.1,-0.7,1.8,2470.441,13.33,0.025,321.3
2020-05-05T05:43:03,42.805,6.029,-0.013,0.015,-0.006,103.0,111.0,101.0,13.4,1505.3,324.2,-0.7,1.8,2470.445,13.33,0.019,319.1
2020-05-05T05:46:03,42.805,6.029,-0.016,0.043,-0.032,105.0,110.0,100.0,13.4,1505.3,326.8,-0.7,1.8,2470.445,13.33,0.045,339.6
2020-05-05T05:49:03,42.805,6.029,0.011,0.016,-0.008,103.0,110.0,100.0,13.4,1505.3,326.9,-0.7,1.9,2470.453,13.33,0.019,34.5
2020-05-05T05:52:03,42.805,6.029,-0.039,0.007,-0.052,103.0,109.0,101.0,13.3,1505.3,326.1,-0.7,1.8,2470.421,13.33,0.039,280.2
2020-05-05T05:55:03,42.805,6.029,0.007,0.02,-0.045,103.0,109.0,101.0,13.3,1505.3,325.6,-0.7,1.8,2470.463,13.33,0.021,19.3
2020-05-05T05:58:03,42.805,6.029,-0.042,0.013,-0.062,103.0,110.0,102.0,13.4,1505.3,325.5,-0.7,1.8,2470.509,13.33,0.043,287.2
2020-05-05T06:04:03,42.805,6.029,-0.003,0.026,-0.017,104.0,109.0,101.0,13.4,1505.3,325.3,-0.7,1.9,2470.487,13.32,0.026,353.4
2020-05-05T06:07:03,42.805,6.029,-0.018,0.014,-0.042,103.0,109.0,101.0,13.4,1505.3,326.3,-0.7,1.8,2470.493,13.33,0.022,307.9
2020-05-05T06:10:03,42.805,6.029,-0.01,0.002,-0.014,104.0,108.0,101.0,13.4,1505.3,325.5,-0.7,1.8,2470.475,13.33,0.01,281.3
2020-05-05T06:13:03,42.805,6.029,0.01,0.007,-0.005,102.0,109.0,101.0,13.4,1505.3,327.3,-0.7,1.8,2470.444,13.33,0.012,55.0
2020-05-05T06:16:03,42.805,6.029,-0.024,0.022,-0.019,104.0,109.0,102.0,13.4,1505.4,326.5,-0.7,1.9,2470.498,13.34,0.032,312.5
2020-05-05T06:19:03,42.805,6.029,0.013,0.008,-0.037,103.0,108.0,102.0,13.3,1505.4,326.2,-0.7,1.9,2470.438,13.34,0.015,58.4
2020-05-05T06:22:03,42.805,6.029,-0.038,0.0,-0.064,103.0,109.0,100.0,13.4,1505.4,326.3,-0.7,1.8,2470.451,13.34,0.038,270.0
2020-05-05T06:25:03,42.805,6.029,-0.005,0.027,-0.021,101.0,109.0,101.0,13.3,1505.4,327.4,-0.7,1.9,2470.454,13.34,0.027,349.5
2020-05-05T06:28:03,42.805,6.029,-0.015,0.012,-0.018,102.0,107.0,100.0,13.4,1505.4,327.6,-0.7,1.8,2470.452,13.34,0.019,308.7
2020-05-05T06:31:03,42.805,6.029,0.023,0.027,0.002,104.0,106.0,99.0,13.4,1505.4,324.4,-0.7,1.8,2470.422,13.34,0.035,40.4
2020-05-05T06:34:03,42.805,6.029,-0.026,0.009,-0.046,105.0,112.0,101.0,13.4,1505.4,325.3,-0.7,1.8,2470.449,13.34,0.027,289.1
2020-05-05T06:37:03,42.805,6.029,-0.045,0.0,-0.08,103.0,108.0,101.0,13.4,1505.4,323.0,-0.7,1.8,2470.474,13.34,0.045,270.0
2020-05-05T06:40:03,42.805,6.029,-0.026,0.019,-0.038,104.0,107.0,100.0,13.3,1505.4,326.7,-0.7,1.8,2470.436,13.34,0.032,306.2
2020-05-05T06:43:03,42.805,6.029,-0.017,0.023,-0.058,106.0,109.0,101.0,13.4,1505.4,328.2,-0.7,1.8,2470.421,13.34,0.028,323.5
2020-05-05T06:46:03,42.805,6.029,-0.011,0.018,-0.044,102.0,108.0,100.0,13.3,1505.4,324.1,-0.6,1.9,2470.435,13.34,0.021,328.6
2020-05-05T06:49:03,42.805,6.029,0.006,0.017,-0.023,103.0,107.0,100.0,13.3,1505.4,326.9,-0.7,1.8,2470.442,13.34,0.018,19.4
2020-05-05T06:52:03,42.805,6.029,-0.014,0.003,-0.066,102.0,110.0,102.0,13.3,1505.4,325.0,-0.7,1.9,2470.418,13.35,0.014,282.1
2020-05-05T06:55:03,42.805,6.029,-0.047,0.012,-0.043,105.0,109.0,101.0,13.4,1505.4,328.1,-0.7,1.8,2470.407,13.35,0.048,284.3
2020-05-05T06:58:03,42.805,6.029,-0.047,0.016,-0.048,102.0,108.0,101.0,13.3,1505.4,327.9,-0.7,1.8,2470.402,13.35,0.049,288.8
2020-05-05T07:04:03,42.805,6.029,-0.039,0.008,-0.057,102.0,109.0,101.0,13.4,1505.3,325.9,-0.7,1.8,2470.453,13.33,0.039,281.6
2020-05-05T07:07:03,42.805,6.029,0.031,0.006,-0.003,100.0,107.0,100.0,13.3,1505.4,326.0,-0.7,1.8,2470.446,13.34,0.031,79.0
2020-05-05T07:10:03,42.805,6.029,0.017,0.003,-0.028,102.0,106.0,100.0,13.4,1505.4,324.8,-0.7,1.8,2470.428,13.34,0.017,80.0
2020-05-05T07:13:03,42.805,6.029,0.034,0.016,0.029,102.0,107.0,102.0,13.4,1505.4,325.4,-0.7,1.8,2470.431,13.34,0.037,64.8
2020-05-05T07:16:03,42.805,6.029,0.002,0.002,-0.053,102.0,108.0,100.0,13.3,1505.4,327.8,-0.7,1.8,2470.45,13.34,0.002,45.0
2020-05-05T07:19:03,42.805,6.029,0.011,-0.008,0.001,102.0,106.0,99.0,13.4,1505.4,328.0,-0.7,1.8,2470.356,13.34,0.013,126.0
2020-05-05T07:22:03,42.805,6.029,-0.002,-0.007,0.01,106.0,108.0,98.0,13.3,1505.4,326.3,-0.7,1.8,2470.438,13.34,0.007,195.9
2020-05-05T07:25:03,42.805,6.029,-0.037,0.013,-0.06,102.0,107.0,101.0,13.4,1505.4,326.1,-0.7,1.8,2470.4,13.34,0.039,289.4
2020-05-05T07:28:03,42.805,6.029,0.01,0.006,0.016,102.0,106.0,101.0,13.4,1505.4,325.2,-0.7,1.8,2470.409,13.34,0.011,59.0
2020-05-05T07:31:03,42.805,6.029,-0.051,0.002,-0.056,104.0,108.0,100.0,13.4,1505.4,324.7,-0.7,1.8,2470.423,13.34,0.051,272.2
2020-05-05T07:34:03,42.805,6.029,0.039,-0.006,0.018,104.0,106.0,100.0,13.4,1505.4,325.3,-0.7,1.8,2470.373,13.34,0.039,98.7
2020-05-05T07:37:03,42.805,6.029,0.026,-0.016,-0.038,101.0,105.0,101.0,13.4,1505.4,328.1,-0.7,1.9,2470.396,13.34,0.03,121.6
2020-05-05T07:40:03,42.805,6.029,-0.009,-0.006,-0.036,103.0,106.0,101.0,13.3,1505.3,325.5,-0.7,1.8,2470.37,13.33,0.01,236.3
2020-05-05T07:43:03,42.805,6.029,-0.024,-0.009,-0.052,102.0,106.0,99.0,13.4,1505.3,324.8,-0.7,1.8,2470.385,13.33,0.025,249.4
2020-05-05T07:46:03,42.805,6.029,0.026,0.009,0.009,102.0,107.0,101.0,13.3,1505.3,327.1,-0.7,1.9,2470.395,13.33,0.027,70.9
2020-05-05T07:49:03,42.805,6.029,0.045,0.001,0.01,103.0,107.0,101.0,13.4,1505.3,328.2,-0.7,1.8,2470.392,13.33,0.045,88.7
2020-05-05T07:52:03,42.805,6.029,0.011,0.004,-0.009,103.0,106.0,100.0,13.3,1505.3,327.2,-0.7,1.8,2470.394,13.33,0.011,70.0
2020-05-05T07:55:03,42.805,6.029,0.046,0.005,0.006,102.0,107.0,101.0,13.4,1505.3,324.2,-0.7,1.8,2470.398,13.33,0.046,83.8
2020-05-05T07:58:03,42.805,6.029,0.036,-0.011,0.007,103.0,106.0,101.0,13.4,1505.3,325.9,-0.7,1.8,2470.345,13.33,0.037,107.0
2020-05-05T08:04:03,42.805,6.029,0.027,-0.008,-0.014,103.0,107.0,101.0,13.4,1505.3,326.9,-0.7,1.8,2470.39,13.31,0.028,106.5
2020-05-05T08:07:03,42.805,6.029,0.024,-0.006,0.0,102.0,105.0,101.0,13.4,1505.3,327.8,-0.7,1.8,2470.413,13.32,0.024,104.0
2020-05-05T08:10:03,42.805,6.029,0.03,-0.009,-0.017,102.0,106.0,100.0,13.4,1505.3,327.7,-0.7,1.8,2470.424,13.32,0.031,106.7
2020-05-05T08:13:03,42.805,6.029,0.026,-0.009,-0.013,102.0,106.0,101.0,13.4,1505.3,325.6,-0.7,1.8,2470.391,13.33,0.027,109.1
2020-05-05T08:16:03,42.805,6.029,0.002,-0.017,-0.02,103.0,106.0,101.0,13.4,1505.3,323.7,-0.7,1.8,2470.403,13.33,0.017,173.3
2020-05-05T08:19:03,42.805,6.029,0.023,-0.002,0.027,104.0,104.0,101.0,13.4,1505.3,328.3,-0.7,1.8,2470.376,13.33,0.023,95.0
2020-05-05T08:22:03,42.805,6.029,0.036,-0.011,-0.01,104.0,107.0,101.0,13.4,1505.3,327.7,-0.7,1.8,2470.38,13.33,0.037,107.0
2020-05-05T08:25:03,42.805,6.029,0.05,-0.023,0.037,102.0,106.0,101.0,13.4,1505.3,324.5,-0.7,1.8,2470.393,13.33,0.055,114.7
2020-05-05T08:28:03,42.805,6.029,0.04,0.002,0.009,102.0,106.0,100.0,13.4,1505.3,325.8,-0.7,1.8,2470.377,13.33,0.04,87.1
2020-05-05T08:31:03,42.805,6.029,0.048,-0.001,0.011,100.0,107.0,101.0,13.3,1505.3,323.8,-0.7,1.8,2470.338,13.33,0.048,91.2
2020-05-05T08:34:03,42.805,6.029,0.043,-0.013,0.017,102.0,107.0,101.0,13.4,1505.3,327.0,-0.8,1.9,2470.363,13.33,0.044,106.8
2020-05-05T08:37:03,42.805,6.029,0.057,-0.003,0.0,102.0,106.0,100.0,13.3,1505.3,325.7,-0.7,1.8,2470.33,13.33,0.057,93.0
2020-05-05T08:43:03,42.805,6.029,0.046,-0.016,0.008,102.0,106.0,102.0,13.4,1505.3,325.2,-0.7,1.8,2470.426,13.31,0.048,109.2
2020-05-05T08:46:03,42.805,6.029,0.019,-0.018,0.005,102.0,107.0,100.0,13.3,1505.3,326.6,-0.7,1.8,2470.352,13.31,0.026,133.5
2020-05-05T08:49:03,42.805,6.029,0.027,-0.015,0.014,103.0,108.0,101.0,13.4,1505.3,324.4,-0.7,1.8,2470.373,13.32,0.03,119.1
2020-05-05T08:52:03,42.805,6.029,0.027,-0.01,-0.004,103.0,107.0,102.0,13.4,1505.3,327.8,-0.7,1.8,2470.346,13.32,0.028,110.3
2020-05-05T08:55:03,42.805,6.029,0.037,-0.022,-0.001,104.0,107.0,101.0,13.4,1505.3,327.0,-0.7,1.8,2470.351,13.32,0.043,120.7
2020-05-05T08:58:03,42.805,6.029,0.045,-0.005,0.013,103.0,106.0,100.0,13.3,1505.3,327.9,-0.7,1.8,2470.347,13.32,0.045,96.3
2020-05-05T09:04:03,42.805,6.029,0.031,-0.006,-0.01,103.0,106.0,101.0,13.4,1505.3,325.1,-0.7,1.8,2470.371,13.31,0.031,101.0
2020-05-05T09:07:03,42.805,6.029,0.02,-0.01,0.014,103.0,107.0,101.0,13.3,1505.3,324.3,-0.7,1.8,2470.36,13.31,0.022,116.6
2020-05-05T09:10:03,42.805,6.029,0.044,-0.01,-0.011,102.0,105.0,100.0,13.4,1505.3,324.3,-0.7,1.8,2470.37,13.32,0.045,102.8
2020-05-05T09:13:03,42.805,6.029,-0.015,-0.002,-0.021,103.0,108.0,101.0,13.4,1505.3,324.4,-0.7,1.8,2470.382,13.32,0.015,262.4
2020-05-05T09:16:03,42.805,6.029,-0.019,-0.032,-0.039,104.0,107.0,101.0,13.4,1505.3,324.4,-0.7,1.8,2470.382,13.32,0.037,210.7
2020-05-05T09:19:03,42.805,6.029,0.004,-0.031,-0.037,104.0,105.0,100.0,13.4,1505.3,323.0,-0.7,1.8,2470.312,13.32,0.031,172.7
2020-05-05T09:22:03,42.805,6.029,0.0,-0.04,-0.034,105.0,107.0,101.0,13.4,1505.3,326.6,-0.7,1.8,2470.345,13.32,0.04,180.0
2020-05-05T09:25:03,42.805,6.029,0.007,-0.017,-0.015,103.0,108.0,101.0,13.4,1505.3,327.6,-0.7,1.8,2470.35,13.32,0.018,157.6
2020-05-05T09:28:03,42.805,6.029,-0.005,-0.037,-0.085,104.0,107.0,102.0,13.3,1505.3,324.5,-0.7,1.8,2470.35,13.33,0.037,187.7
2020-05-05T09:31:03,42.805,6.029,-0.013,-0.013,-0.022,104.0,106.0,102.0,13.3,1505.3,325.1,-0.7,1.9,2470.3,13.33,0.018,225.0
2020-05-05T09:34:03,42.805,6.029,0.002,-0.03,-0.037,104.0,107.0,102.0,13.4,1505.3,326.2,-0.7,1.8,2470.303,13.33,0.03,176.2
2020-05-05T09:37:03,42.805,6.029,0.001,-0.019,-0.029,103.0,107.0,101.0,13.4,1505.3,325.3,-0.7,1.8,2470.305,13.33,0.019,177.0
2020-05-05T09:40:03,42.805,6.029,-0.004,-0.027,-0.023,103.0,108.0,101.0,13.3,1505.3,325.0,-0.7,1.8,2470.34,13.33,0.027,188.4
2020-05-05T09:43:03,42.805,6.029,-0.003,-0.031,-0.039,102.0,106.0,100.0,13.4,1505.3,327.6,-0.7,1.8,2470.3,13.33,0.031,185.5
2020-05-05T09:46:03,42.805,6.029,-0.02,-0.017,-0.034,103.0,107.0,101.0,13.4,1505.3,323.5,-0.7,1.8,2470.318,13.33,0.026,229.6
2020-05-05T09:49:03,42.805,6.029,0.011,0.001,-0.032,104.0,107.0,102.0,13.4,1505.3,326.8,-0.7,1.8,2470.302,13.33,0.011,84.8
2020-05-05T09:52:03,42.805,6.029,-0.013,-0.026,-0.033,103.0,109.0,101.0,13.4,1505.3,325.0,-0.7,1.8,2470.3,13.33,0.029,206.6
2020-05-05T09:55:03,42.805,6.029,-0.009,-0.036,-0.046,103.0,109.0,101.0,13.4,1505.3,324.9,-0.7,1.9,2470.285,13.33,0.037,194.0
2020-05-05T09:58:03,42.805,6.029,-0.007,-0.023,-0.021,105.0,106.0,101.0,13.4,1505.3,327.4,-0.6,1.8,2470.276,13.33,0.024,196.9
2020-05-05T10:04:03,42.805,6.029,0.011,-0.022,-0.021,103.0,107.0,101.0,13.4,1505.3,324.6,-0.8,1.8,2470.331,13.31,0.024,153.4